Powrót do katalogu

STARLINK-2105

AktywnyŁącznośćVLEO
NORAD 47385·PAYLOAD·🇺🇸 United States

Wystrzelony Jan 20, 2021 z Cape Canaveral Space Force Station

Loading…

Następne Przeloty (najbliższe 24 godziny)

TLE

ŚwieżeSource: CelesTrak SupGP

Epoka: Sep 14, 2026, 13:36 UTC

1 47385C 21005AN  26257.56715278 -.00028067  00000+0 -90297-3 0  2579
2 47385  53.1585 238.0984 0001502  88.8850 103.2360 15.31701519    14

Śledź STARLINK-2105 w czasie rzeczywistym z AllMySat

Download on the App Store